TimePST,TemperatureF,Dew PointF,Humidity,Sea Level PressureIn,VisibilityMPH,Wind Direction,Wind SpeedMPH,Gust SpeedMPH,PrecipitationIn,Events,Conditions,WindDirDegrees,DateUTC
12:55 AM,39.9,28.9,65,30.25,10.0,West,5.8,-,N/A,,Scattered Clouds,270,2013-02-28 08:55:00
1:55 AM,39.0,30.0,70,30.25,10.0,NNW,5.8,-,N/A,,Mostly Cloudy,330,2013-02-28 09:55:00
2:55 AM,41.0,30.9,67,30.24,10.0,NW,6.9,-,N/A,,Mostly Cloudy,320,2013-02-28 10:55:00
3:55 AM,41.0,30.9,67,30.24,10.0,NNW,3.5,-,N/A,,Overcast,340,2013-02-28 11:55:00
4:55 AM,37.9,30.0,73,30.25,10.0,Calm,Calm,-,N/A,,Overcast,0,2013-02-28 12:55:00
5:55 AM,39.9,30.0,68,30.27,10.0,Calm,Calm,-,0.00,Rain,Light Rain,0,2013-02-28 13:55:00
6:51 AM,39.2,32.0,75,30.27,9.0,Calm,Calm,-,0.03,Rain,Light Rain,0,2013-02-28 14:51:00
6:55 AM,39.0,32.0,76,30.29,10.0,Calm,Calm,-,0.03,Rain,Light Rain,0,2013-02-28 14:55:00
7:55 AM,37.9,34.0,86,30.30,10.0,WNW,4.6,-,0.01,Rain,Light Rain,290,2013-02-28 15:55:00
8:55 AM,39.0,36.0,89,30.31,10.0,Calm,Calm,-,0.00,Rain,Light Rain,0,2013-02-28 16:55:00
9:55 AM,39.0,35.1,86,30.32,10.0,Calm,Calm,-,0.02,Rain,Light Rain,0,2013-02-28 17:55:00
10:04 AM,39.2,35.6,87,30.30,10.0,WSW,3.5,-,0.00,Rain,Light Rain,240,2013-02-28 18:04:00
10:55 AM,37.9,34.0,86,30.33,8.0,WNW,5.8,-,0.03,Rain,Light Rain,290,2013-02-28 18:55:00
11:20 AM,37.4,33.8,87,30.30,8.0,NW,3.5,-,0.01,Rain,Light Rain,320,2013-02-28 19:20:00
11:55 AM,37.9,34.0,86,30.33,9.0,Calm,Calm,-,0.03,Rain,Light Rain,0,2013-02-28 19:55:00
12:55 PM,39.0,34.0,82,30.32,10.0,Calm,Calm,-,0.01,Rain,Light Rain,0,2013-02-28 20:55:00
1:42 PM,39.2,35.6,87,30.28,10.0,West,4.6,-,0.00,Rain,Light Rain,280,2013-02-28 21:42:00
1:55 PM,39.0,35.1,86,30.31,10.0,WNW,4.6,-,0.01,Rain,Light Rain,290,2013-02-28 21:55:00
2:35 PM,39.2,35.6,87,30.28,10.0,West,5.8,-,0.00,Rain,Light Rain,280,2013-02-28 22:35:00
2:55 PM,39.9,36.0,86,30.31,10.0,West,6.9,-,0.00,Rain,Light Rain,280,2013-02-28 22:55:00
3:55 PM,39.9,36.0,86,30.32,10.0,WNW,8.1,-,0.00,,Overcast,300,2013-02-28 23:55:00
4:55 PM,39.9,35.1,83,30.32,10.0,NW,4.6,-,N/A,,Overcast,320,2013-03-01 00:55:00
5:26 PM,39.2,33.8,81,30.29,10.0,SSW,4.6,-,N/A,,Mostly Cloudy,200,2013-03-01 01:26:00
5:55 PM,37.9,35.1,89,30.32,10.0,Calm,Calm,-,N/A,,Scattered Clouds,0,2013-03-01 01:55:00
6:35 PM,37.4,35.6,93,30.29,10.0,NNE,3.5,-,N/A,,Mostly Cloudy,30,2013-03-01 02:35:00
7:55 PM,39.0,35.1,86,30.33,10.0,WSW,4.6,-,N/A,,Overcast,250,2013-03-01 03:55:00
8:55 PM,37.9,35.1,89,30.33,10.0,West,4.6,-,N/A,,Overcast,280,2013-03-01 04:55:00
9:55 PM,37.9,35.1,89,30.32,10.0,Calm,Calm,-,N/A,,Overcast,0,2013-03-01 05:55:00
11:55 PM,39.0,35.1,86,30.34,10.0,NW,3.5,-,N/A,,Overcast,310,2013-03-01 07:55:00